Location: Cheyres
(46.8153°N, 6.7877°E)
Time: 02:44:47
(UTC+00:00)

Cosmos 1610 Rocket - Pass Details

Date: 11 May 2021
Orbit: 952 x 1003 km, 82.9° (Epoch: 18 June)

Event Time Altitude Azimuth Distance (km) Brightness Sun altitude
Rises 21:32:41 0° 350° (N) 3,648 8.8 -20.0°
Reaches altitude 10° 21:35:11 10° 350° (N) 2,694 7.9 -20.2°
Maximum altitude 21:41:21 85° 263° (W) 963 4.4 -20.7°
Enters shadow 21:44:04 36° 178° (S) 1,473 5.0 -20.9°
